| time (UTC) | temp F | wind direction | speed MPH | gust MPH | rain 1hr in | rain 24hr in | rain mn in | humidity % | barometer mb |
| 20260506022513 | 59 | 248 | 1.0 | 2.0 | 0.00 | 0.00 | 0.00 | 73 | 1013.9 |
| 20260506021512 | 59 | 240 | 2.0 | 2.0 | 0.00 | 0.00 | 0.00 | 72 | 1013.9 |
| 20260506020508 | 60 | 248 | 2.0 | 4.0 | 0.00 | 0.00 | 0.00 | 71 | 1013.8 |
| 20260506015525 | 60 | 256 | 3.0 | 6.0 | 0.00 | 0.00 | 0.00 | 70 | 1013.7 |
| 20260506014501 | 60 | 259 | 3.0 | 6.0 | 0.00 | 0.00 | 0.00 | 69 | 1013.8 |
| 20260506013458 | 61 | 270 | 2.0 | 2.0 | 0.00 | 0.00 | 0.00 | 68 | 1013.7 |
| 20260506012456 | 61 | 270 | 2.0 | 4.0 | 0.00 | 0.00 | 0.00 | 67 | 1013.8 |
| 20260506011452 | 61 | 248 | 1.0 | 2.0 | 0.00 | 0.00 | 0.00 | 66 | 1013.9 |
| 20260506010510 | 61 | 248 | 2.0 | 4.0 | 0.00 | 0.00 | 0.00 | 65 | 1014.0 |
| 20260506005444 | 62 | 203 | 2.0 | 2.0 | 0.00 | 0.00 | 0.00 | 64 | 1014.1 |
| 20260506004441 | 62 | 180 | 2.0 | 2.0 | 0.00 | 0.00 | 0.00 | 64 | 1014.2 |
| 20260506003438 | 61 | 0.0 | 0.0 | 0.00 | 0.00 | 0.00 | 65 | 1014.4 | |
| 20260506002435 | 62 | 158 | 2.0 | 2.0 | 0.00 | 0.00 | 0.00 | 64 | 1014.4 |
| 20260506001432 | 62 | 45 | 1.0 | 2.0 | 0.00 | 0.00 | 0.00 | 65 | 1014.4 |
| 20260506000431 | 61 | 0.0 | 0.0 | 0.00 | 0.00 | 0.00 | 64 | 1014.5 | |
| 20260505235426 | 61 | 0.0 | 2.0 | 0.00 | 0.00 | 0.00 | 65 | 1014.5 | |
| 20260505234423 | 61 | 0.0 | 0.0 | 0.00 | 0.00 | 0.00 | 65 | 1014.5 | |
| 20260505233419 | 61 | 0.0 | 0.0 | 0.00 | 0.00 | 0.00 | 65 | 1014.4 | |
| 20260505232417 | 62 | 45 | 2.0 | 2.0 | 0.00 | 0.00 | 0.00 | 64 | 1014.4 |
| 20260505231512 | 62 | 45 | 2.0 | 4.0 | 0.00 | 0.00 | 0.00 | 65 | 1014.4 |
| 20260505230510 | 62 | 53 | 2.0 | 2.0 | 0.00 | 0.00 | 0.00 | 65 | 1014.4 |
| 20260505225506 | 62 | 36 | 2.0 | 4.0 | 0.00 | 0.00 | 0.00 | 65 | 1014.3 |
| 20260505224504 | 62 | 23 | 3.0 | 4.0 | 0.00 | 0.00 | 0.00 | 65 | 1014.3 |
| 20260505223521 | 62 | 62 | 3.0 | 6.0 | 0.00 | 0.00 | 0.00 | 65 | 1014.2 |
| 20260505222517 | 62 | 29 | 4.0 | 7.0 | 0.00 | 0.00 | 0.00 | 65 | 1014.3 |
| 20260505221453 | 62 | 45 | 3.0 | 7.0 | 0.00 | 0.00 | 0.00 | 66 | 1014.3 |
| 20260505220450 | 63 | 52 | 4.0 | 8.0 | 0.00 | 0.00 | 0.00 | 66 | 1014.2 |
| 20260505215446 | 63 | 30 | 3.0 | 7.0 | 0.00 | 0.00 | 0.00 | 66 | 1014.3 |
| 20260505214505 | 63 | 31 | 5.0 | 9.0 | 0.00 | 0.00 | 0.00 | 66 | 1014.2 |
| 20260505213500 | 63 | 76 | 4.0 | 7.0 | 0.00 | 0.00 | 0.00 | 67 | 1014.2 |
| 20260505212438 | 63 | 0 | 4.0 | 9.0 | 0.00 | 0.00 | 0.00 | 66 | 1014.2 |
| 20260505211434 | 63 | 50 | 6.0 | 13.0 | 0.00 | 0.00 | 0.00 | 67 | 1014.2 |
| 20260505210500 | 64 | 15 | 4.0 | 8.0 | 0.00 | 0.00 | 0.00 | 68 | 1014.3 |
| 20260505205457 | 64 | 15 | 7.0 | 17.0 | 0.00 | 0.00 | 0.00 | 72 | 1014.2 |
| 20260505204454 | 64 | 58 | 4.0 | 9.0 | 0.00 | 0.00 | 0.00 | 75 | 1014.1 |
| 20260505203511 | 65 | 113 | 4.0 | 16.0 | 0.00 | 0.00 | 0.00 | 75 | 1014.2 |
| 20260505202507 | 65 | 45 | 6.0 | 14.0 | 0.00 | 0.00 | 0.00 | 76 | 1013.9 |
| 20260505201445 | 65 | 68 | 7.0 | 13.0 | 0.00 | 0.00 | 0.00 | 78 | 1013.8 |
| 20260505200441 | 65 | 45 | 5.0 | 8.0 | 0.00 | 0.00 | 0.00 | 78 | 1013.7 |
| 20260505195438 | 65 | 14 | 7.0 | 18.0 | 0.00 | 0.00 | 0.00 | 79 | 1013.5 |
| 20260505194434 | 66 | 56 | 6.0 | 16.0 | 0.00 | 0.00 | 0.00 | 80 | 1013.2 |
| 20260505193451 | 66 | 12 | 4.0 | 11.0 | 0.00 | 0.00 | 0.00 | 82 | 1013.1 |
| 20260505192428 | 66 | 17 | 5.0 | 8.0 | 0.00 | 0.00 | 0.00 | 83 | 1012.9 |
| 20260505191425 | 66 | 6 | 7.0 | 13.0 | 0.00 | 0.00 | 0.00 | 84 | 1012.7 |
| 20260505190422 | 66 | 45 | 6.0 | 11.0 | 0.00 | 0.00 | 0.00 | 83 | 1012.5 |
| 20260505185419 | 67 | 54 | 6.0 | 11.0 | 0.00 | 0.00 | 0.00 | 81 | 1012.4 |
| 20260505184415 | 69 | 52 | 3.0 | 7.0 | 0.00 | 0.00 | 0.00 | 78 | 1012.1 |
| 20260505183512 | 69 | 30 | 3.0 | 7.0 | 0.00 | 0.00 | 0.00 | 77 | 1011.9 |
| 20260505182510 | 71 | 17 | 5.0 | 11.0 | 0.00 | 0.00 | 0.00 | 70 | 1011.7 |
| 20260505181505 | 72 | 56 | 4.0 | 7.0 | 0.00 | 0.00 | 0.00 | 65 | 1011.6 |
| 20260505180502 | 73 | 62 | 3.0 | 8.0 | 0.00 | 0.00 | 0.00 | 64 | 1011.5 |
| 20260505175459 | 72 | 91 | 6.0 | 9.0 | 0.00 | 0.00 | 0.00 | 63 | 1011.4 |
| 20260505174456 | 73 | 103 | 7.0 | 11.0 | 0.00 | 0.00 | 0.00 | 62 | 1011.2 |
| 20260505173514 | 74 | 211 | 4.0 | 11.0 | 0.00 | 0.00 | 0.00 | 59 | 1011.1 |
| 20260505172451 | 74 | 158 | 2.0 | 6.0 | 0.00 | 0.00 | 0.00 | 60 | 1011.0 |
| 20260505171446 | 79 | 270 | 6.0 | 11.0 | 0.00 | 0.00 | 0.00 | 31 | 1011.1 |
| 20260505170443 | 77 | 293 | 6.0 | 9.0 | 0.00 | 0.00 | 0.00 | 26 | 1011.0 |
| 20260505165441 | 78 | 270 | 3.0 | 7.0 | 0.00 | 0.00 | 0.00 | 27 | 1011.0 |
| 20260505164437 | 77 | 254 | 4.0 | 7.0 | 0.00 | 0.00 | 0.00 | 26 | 1011.1 |
| 20260505163433 | 79 | 260 | 5.0 | 8.0 | 0.00 | 0.00 | 0.00 | 26 | 1011.0 |
| 20260505162430 | 78 | 300 | 8.0 | 13.0 | 0.00 | 0.00 | 0.00 | 26 | 1011.1 |
| 20260505161528 | 78 | 248 | 5.0 | 13.0 | 0.00 | 0.00 | 0.00 | 26 | 1011.0 |
| 20260505160424 | 78 | 243 | 5.0 | 9.0 | 0.00 | 0.00 | 0.00 | 26 | 1011.0 |
| 20260505152512 | 78 | 217 | 6.0 | 11.0 | 0.00 | 0.00 | 0.00 | 26 | 1010.9 |
| 20260505151508 | 79 | 257 | 7.0 | 14.0 | 0.00 | 0.00 | 0.00 | 26 | 1011.0 |
| 20260505150506 | 78 | 260 | 9.0 | 20.0 | 0.00 | 0.00 | 0.00 | 28 | 1011.1 |
| 20260505140445 | 78 | 270 | 10.0 | 17.0 | 0.00 | 0.00 | 0.00 | 29 | 1011.7 |
| 20260505124440 | 76 | 287 | 9.0 | 13.0 | 0.00 | 0.00 | 0.00 | 31 | 1012.0 |
| 20260505123417 | 75 | 270 | 6.0 | 11.0 | 0.00 | 0.00 | 0.00 | 32 | 1012.1 |
| 20260505122513 | 76 | 248 | 4.0 | 11.0 | 0.00 | 0.00 | 0.00 | 31 | 1012.1 |
| 20260505121510 | 77 | 230 | 8.0 | 14.0 | 0.00 | 0.00 | 0.00 | 29 | 1011.9 |
| 20260505120507 | 76 | 270 | 10.0 | 15.0 | 0.00 | 0.00 | 0.00 | 31 | 1012.1 |
| 20260505115504 | 76 | 252 | 3.0 | 8.0 | 0.00 | 0.00 | 0.00 | 30 | 1012.2 |
| 20260505114500 | 75 | 246 | 5.0 | 8.0 | 0.00 | 0.00 | 0.00 | 31 | 1012.2 |
| 20260505113517 | 75 | 248 | 6.0 | 14.0 | 0.00 | 0.00 | 0.00 | 31 | 1012.4 |
| 20260505112516 | 75 | 257 | 7.0 | 11.0 | 0.00 | 0.00 | 0.00 | 31 | 1012.6 |
| 20260505111452 | 77 | 238 | 6.0 | 14.0 | 0.00 | 0.00 | 0.00 | 30 | 1012.6 |
| 20260505110447 | 76 | 308 | 3.0 | 4.0 | 0.00 | 0.00 | 0.00 | 30 | 1012.7 |
| 20260505101431 | 72 | 192 | 7.0 | 11.0 | 0.00 | 0.00 | 0.00 | 39 | 1013.2 |
| 20260505100428 | 73 | 260 | 4.0 | 9.0 | 0.00 | 0.00 | 0.00 | 37 | 1013.1 |
| 20260505095425 | 73 | 288 | 5.0 | 8.0 | 0.00 | 0.00 | 0.00 | 38 | 1013.2 |
| 20260505094421 | 73 | 184 | 3.0 | 4.0 | 0.00 | 0.00 | 0.00 | 50 | 1013.3 |
| 20260505093418 | 74 | 248 | 0.0 | 2.0 | 0.00 | 0.00 | 0.00 | 49 | 1013.2 |
| 20260505092435 | 72 | 174 | 3.0 | 6.0 | 0.00 | 0.00 | 0.00 | 54 | 1013.5 |
| 20260505091512 | 70 | 59 | 2.0 | 4.0 | 0.00 | 0.00 | 0.00 | 54 | 1013.5 |
| 20260505090510 | 69 | 248 | 3.0 | 8.0 | 0.00 | 0.00 | 0.00 | 58 | 1013.5 |
| 20260505085505 | 70 | 129 | 2.0 | 4.0 | 0.00 | 0.00 | 0.00 | 67 | 1013.6 |
| 20260505084502 | 70 | 151 | 1.0 | 4.0 | 0.00 | 0.00 | 0.00 | 66 | 1013.7 |
| 20260505083459 | 68 | 263 | 2.0 | 4.0 | 0.00 | 0.00 | 0.00 | 67 | 1013.7 |
| 20260505082457 | 67 | 243 | 3.0 | 4.0 | 0.00 | 0.00 | 0.00 | 67 | 1013.7 |
| 20260505081452 | 66 | 270 | 3.0 | 4.0 | 0.00 | 0.00 | 0.00 | 70 | 1013.8 |
| 20260505080449 | 66 | 248 | 2.0 | 4.0 | 0.00 | 0.00 | 0.00 | 71 | 1013.7 |
| 20260505075446 | 65 | 257 | 2.0 | 4.0 | 0.00 | 0.00 | 0.00 | 70 | 1013.9 |
| 20260505074443 | 64 | 270 | 3.0 | 4.0 | 0.00 | 0.00 | 0.00 | 69 | 1014.0 |
| 20260505073440 | 64 | 248 | 4.0 | 8.0 | 0.00 | 0.00 | 0.00 | 69 | 1014.0 |
| 20260505072436 | 64 | 270 | 3.0 | 6.0 | 0.00 | 0.00 | 0.00 | 68 | 1014.1 |
| 20260505071433 | 65 | 284 | 1.0 | 4.0 | 0.00 | 0.00 | 0.00 | 67 | 1014.0 |
| 20260505070451 | 63 | 285 | 3.0 | 4.0 | 0.00 | 0.00 | 0.00 | 71 | 1014.1 |
| 20260505065426 | 62 | 248 | 1.0 | 2.0 | 0.00 | 0.00 | 0.00 | 77 | 1014.1 |
| 20260505064423 | 61 | 255 | 3.0 | 4.0 | 0.00 | 0.00 | 0.00 | 83 | 1014.1 |
| 20260505063420 | 60 | 240 | 4.0 | 6.0 | 0.00 | 0.00 | 0.00 | 87 | 1014.1 |
| 20260505062417 | 60 | 266 | 3.0 | 4.0 | 0.00 | 0.00 | 0.00 | 90 | 1014.0 |
| 20260505061515 | 59 | 248 | 2.0 | 4.0 | 0.00 | 0.00 | 0.00 | 91 | 1014.0 |
| 20260505060510 | 59 | 0.0 | 2.0 | 0.00 | 0.00 | 0.00 | 91 | 1013.9 | |
| 20260505055527 | 59 | 248 | 1.0 | 2.0 | 0.00 | 0.00 | 0.00 | 92 | 1013.9 |
| 20260505054524 | 59 | 257 | 4.0 | 6.0 | 0.00 | 0.00 | 0.00 | 92 | 1014.0 |
| 20260505053521 | 59 | 270 | 3.0 | 4.0 | 0.00 | 0.00 | 0.00 | 92 | 1013.9 |
| 20260505052458 | 59 | 263 | 4.0 | 6.0 | 0.00 | 0.00 | 0.00 | 92 | 1013.8 |
| 20260505051455 | 59 | 248 | 1.0 | 2.0 | 0.00 | 0.00 | 0.00 | 92 | 1013.8 |
| 20260505050511 | 59 | 270 | 2.0 | 4.0 | 0.00 | 0.00 | 0.00 | 92 | 1013.7 |
| 20260505041435 | 60 | 315 | 1.0 | 2.0 | 0.00 | 0.00 | 0.00 | 91 | 1013.8 |
| 20260505040432 | 60 | 315 | 0.0 | 2.0 | 0.00 | 0.00 | 0.00 | 91 | 1013.8 |
| 20260505035429 | 60 | 315 | 1.0 | 2.0 | 0.00 | 0.00 | 0.00 | 91 | 1013.8 |
| 20260505034425 | 60 | 315 | 1.0 | 2.0 | 0.00 | 0.00 | 0.00 | 91 | 1014.0 |
| 20260505033443 | 60 | 315 | 1.0 | 2.0 | 0.00 | 0.00 | 0.00 | 91 | 1014.1 |
| 20260505032419 | 60 | 0.0 | 2.0 | 0.00 | 0.00 | 0.00 | 91 | 1014.1 | |
| 20260505031415 | 60 | 315 | 2.0 | 2.0 | 0.00 | 0.00 | 0.00 | 91 | 1014.0 |
| 20260505030512 | 60 | 315 | 1.0 | 2.0 | 0.00 | 0.00 | 0.00 | 91 | 1014.2 |
| 20260505025509 | 60 | 315 | 1.0 | 2.0 | 0.00 | 0.00 | 0.00 | 91 | 1014.2 |
| 20260505024506 | 60 | 315 | 2.0 | 2.0 | 0.00 | 0.00 | 0.00 | 91 | 1014.2 |
| 20260505023503 | 61 | 0.0 | 0.0 | 0.00 | 0.00 | 0.00 | 91 | 1014.1 |